[[{"header":{"parameterUnit":"m.s-1","parameterCategory":1,"la1":30.2991,"la2":30.254,"lo1":-89.0895,"lo2":-89.0444,"dy":0.0017,"dx":0.0017,"nx":28,"ny":28,"refTime":"2024-06-30T03:00:00:Z","depth":0,"parameterNumber":2,"parameterNumberName":"U-component_of_WINDS"},"data":[0,0,0,0,0,0,0,0,0,0,0,0,0,0,0,0,0,0,0,0,0,0,0,0,0,0,0,0,0,0,0,0,0,0,0,0,0,0,0,0,0,0,0,0,0,0,0,0,0,0,0,0,0,0,0,0,0,0,1.9423,1.9425,0,1.9553,1.9554,1.9556,1.958,1.9579,1.9578,1.9577,1.9715,1.9719,1.9724,0,0,0,0,0,0,0,0,0,0,0,0,0,1.9202,1.9206,1.9423,1.9425,1.9426,1.9553,1.9555,1.9556,1.958,1.9579,1.9578,1.9577,1.9713,1.9719,1.9724,0,0,0,0,0,0,0,0,0,0,0,0,0,1.9312,1.9207,1.9423,1.9454,1.9458,1.9552,1.9555,1.9557,1.9581,1.9579,1.9578,1.9576,1.9712,1.9718,1.9725,1.98,0,0,1.9747,1.975,0,0,0,0,0,0,0,0,1.9305,1.932,1.9448,1.9452,1.9456,1.9549,1.9527,1.9638,1.9581,1.9534,1.9577,1.9575,1.9661,1.9672,1.97,1.9806,1.9812,1.9747,1.9751,1.9754,1.9756,0,0,0,0,0,0,0,1.9298,1.9314,1.9475,1.9449,1.9455,1.9463,1.9477,1.9548,1.9605,1.9538,1.954,1.9555,1.9663,1.9693,1.9704,1.9814,1.9747,1.9753,1.9757,1.976,1.999,1.9992,0,0,0,0,0,0,1.9284,1.9308,1.9471,1.9479,1.9375,1.9468,1.9483,1.9521,1.9604,1.9616,1.9556,1.9556,1.9682,1.9695,1.9709,1.9803,1.9754,1.9761,1.9765,1.9988,1.9991,1.9993,0,0,0,0,0,0,1.9279,1.9298,1.9465,1.9394,1.9416,1.9473,1.9515,1.9524,1.9554,1.9618,1.9629,1.9576,1.9682,1.9699,1.9777,1.9808,1.9764,1.977,1.9986,1.9989,1.9992,1.999,0,0,0,0,0,0,1.9273,1.9296,1.9324,1.9394,1.9419,1.953,1.9517,1.9528,1.9566,1.9566,1.9639,1.965,1.9682,1.9766,1.9784,1.9816,1.9776,1.9984,1.9987,1.9991,1.9988,1.9993,1.9997,0,0,0,0,0,1.9265,1.9319,1.9325,1.9345,1.9455,1.9532,1.9546,1.958,1.9568,1.9597,1.9638,1.9648,1.9801,1.9774,1.9794,1.9829,1.9982,1.9986,1.999,1.9986,1.9992,1.9997,0,0,0,0,0,0,1.9252,1.9329,1.9336,1.9415,1.9466,1.9535,1.9573,1.9585,1.9642,1.964,1.9681,1.9698,1.9774,1.981,1.9778,1.9907,1.9891,1.99,1.9881,1.9887,1.9891,1.9882,1.9782,0,0,0,0,0,1.9258,1.9313,1.9377,1.9441,1.9466,1.9515,1.955,1.9571,1.9627,1.9649,1.9696,1.9751,1.9812,1.9852,1.9911,1.9993,2.001,2.0027,2.0032,2.0035,2.0042,2.009,2.0098,2.0007,2.0007,2.0007,0,0,1.9272,1.9321,1.9353,1.9439,1.9482,1.9539,1.9533,1.9594,1.9637,1.9659,1.9736,1.9772,1.9837,1.9917,1.9955,1.9949,2.0071,2.0041,2.0043,2.0048,2.0095,2.0104,2.0111,2.001,2.0009,2.0009,0,0,1.9327,1.9368,1.9426,1.9468,1.9532,1.9565,1.9578,1.9646,1.9671,1.9748,1.9766,1.9819,1.9923,1.9968,2.0005,2.0077,2.0089,2.0096,2.012,2.0166,2.0173,2.0179,2.0206,2.0215,2.0103,2.0103,2.0103,0,1.9336,1.9421,1.9454,1.9514,1.9552,1.9573,1.9633,1.9674,1.9754,1.9781,1.9773,1.9904,1.9948,2.0041,2.0058,2.0087,2.0106,2.0088,2.0169,2.0176,2.0182,2.0209,2.0219,2.0103,2.0103,2.0103,2.0103,0,1.943,1.9489,1.9528,1.9604,1.9647,1.9707,1.9751,1.979,1.9808,1.9842,1.9922,1.9976,2.0047,2.0071,2.009,2.0167,2.0161,2.016,2.0145,2.0191,2.0216,2.0227,2.0104,2.0104,2.0103,2.0103,0,0,1.948,1.9574,1.9588,1.9623,1.9696,1.9743,1.9804,1.9872,1.9906,1.9962,2.0015,2.0103,2.0103,2.0144,2.0168,2.0209,2.0264,2.0203,2.0206,2.0213,2.0354,2.0354,2.0365,2.0272,2.0274,2.0276,2.0349,0,1.9544,1.9652,1.9684,1.9776,1.9832,1.9853,1.9907,1.9958,1.9992,2.0046,2.0084,2.0145,2.014,2.0166,2.0206,2.0248,2.0293,2.0244,2.0324,2.0326,2.0307,2.0378,2.0379,2.0445,2.0359,2.036,2.0362,0,1.9632,1.9688,1.9785,1.9851,1.9876,1.9923,1.9989,2.004,2.0099,2.0121,2.0168,2.0189,2.0255,2.0236,2.033,2.0296,2.0331,2.0357,2.036,2.037,2.0347,2.039,2.0467,2.0477,2.0377,2.0376,2.0375,0,1.966,1.9759,1.983,1.986,1.9939,1.9972,2.0007,2.0064,2.0104,2.0162,2.0188,2.0254,2.029,2.0342,2.0381,2.0363,2.0471,2.0455,2.0493,2.0492,2.0515,2.0513,2.0599,2.0536,2.0536,2.0536,2.0536,0,1.9728,1.9786,1.9844,1.9888,1.9955,1.9992,2.0058,2.0094,2.0146,2.0198,2.0222,2.0271,2.0319,2.0375,2.0406,2.048,2.0496,2.0517,2.0524,2.0515,2.0512,2.0539,2.0535,2.0539,2.0538,2.0538,2.0537,0,1.977,1.9811,1.989,1.9958,1.9977,2.0023,2.0083,2.0127,2.0161,2.0228,2.0246,2.0301,2.0368,2.0412,2.0498,2.0519,2.06,2.0606,2.0579,2.0583,2.0618,2.0615,2.0725,2.0742,2.0667,2.0667,2.0668,0,1.9811,1.9856,1.9929,1.9966,2.0,2.0058,2.0098,2.0138,2.0179,2.0251,2.0287,2.0355,2.0412,2.052,2.0568,2.0635,2.0643,2.0677,2.0654,2.0643,2.0645,2.0642,2.0647,2.0681,2.0682,2.0682,2.0683,0,1.9879,1.9897,1.9953,2.0017,2.0064,2.0117,2.0169,2.0198,2.0247,2.0292,2.036,2.0404,2.0492,2.0561,2.0632,2.067,2.0685,2.069,2.0702,2.0693,2.0676,2.0687,2.059,2.0687,2.0687,2.0686,2.0686,2.0686,1.9923,1.9965,2.0023,2.0085,2.0129,2.0177,2.0222,2.0263,2.032,2.0393,2.0414,2.0485,2.0546,2.0642,2.0682,2.074,2.0736,2.0753,2.0758,2.0762,2.0763,2.0666,2.0753,2.0753,2.0753,2.0753,2.0753,0,1.9993,2.0032,2.0088,2.0161,2.021,2.0219,2.0278,2.0319,2.0381,2.0435,2.0491,2.057,2.0637,2.0691,2.076,2.0797,2.0805,2.0813,2.0812,2.082,2.0762,2.0744,2.0805,2.0805,2.0805,2.0805,2.0805,2.0805,2.0036,2.0107,2.0132,2.0227,2.0265,2.0335,2.0368,2.0414,2.0457,2.0544,2.0599,2.0633,2.0688,2.0762,2.0824,2.0838,2.0863,2.087,2.0886,2.083,2.0824,2.0819,2.0803,2.0875,2.0875,2.0939,2.094,2.094]},{"header":{"parameterUnit":"m.s-1","parameterCategory":1,"la1":30.2991,"la2":30.254,"lo1":-89.0895,"lo2":-89.0444,"dy":0.0017,"dx":0.0017,"nx":28,"ny":28,"refTime":"2024-06-30T03:00:00:Z","depth":0,"parameterNumber":3,"parameterNumberName":"V-component_of_WINDS"},"data":[0,0,0,0,0,0,0,0,0,0,0,0,0,0,0,0,0,0,0,0,0,0,0,0,0,0,0,0,0,0,0,0,0,0,0,0,0,0,0,0,0,0,0,0,0,0,0,0,0,0,0,0,0,0,0,0,0,0,1.1159,1.1159,0,1.1205,1.1206,1.1206,1.1163,1.1161,1.1159,1.1157,1.1207,1.121,1.1213,0,0,0,0,0,0,0,0,0,0,0,0,0,1.103,1.1033,1.1158,1.1159,1.116,1.1205,1.1206,1.1206,1.1163,1.1161,1.1159,1.1157,1.1206,1.1209,1.1213,0,0,0,0,0,0,0,0,0,0,0,0,0,1.1082,1.1034,1.1158,1.1143,1.1142,1.1205,1.1206,1.1206,1.1163,1.1161,1.1158,1.1156,1.1205,1.1209,1.1213,1.1294,0,0,1.1227,1.1229,0,0,0,0,0,0,0,0,1.108,1.1087,1.1145,1.1144,1.1144,1.1175,1.1179,1.1236,1.1164,1.1155,1.1157,1.1154,1.1199,1.1203,1.1218,1.1296,1.1298,1.1227,1.123,1.1232,1.1233,0,0,0,0,0,0,0,1.1076,1.1085,1.1177,1.1146,1.1145,1.1134,1.1138,1.1189,1.1191,1.1156,1.1153,1.1159,1.1198,1.1214,1.1219,1.1299,1.1227,1.1231,1.1234,1.1236,1.1438,1.1441,0,0,0,0,0,0,1.1074,1.1082,1.1175,1.1178,1.1104,1.1138,1.1143,1.1168,1.1191,1.1192,1.1161,1.1157,1.1207,1.1214,1.122,1.1311,1.1232,1.1236,1.1239,1.1436,1.1439,1.1442,0,0,0,0,0,0,1.1071,1.1083,1.1174,1.1129,1.114,1.1143,1.1171,1.117,1.1186,1.1194,1.1195,1.1177,1.1206,1.1214,1.1274,1.1312,1.1238,1.1242,1.1432,1.1437,1.144,1.1496,0,0,0,0,0,0,1.1068,1.1082,1.1113,1.113,1.1143,1.1227,1.1174,1.1173,1.1194,1.1188,1.121,1.1211,1.1204,1.1268,1.1279,1.1317,1.1246,1.1429,1.1434,1.1439,1.1491,1.1502,1.1511,0,0,0,0,0,1.1064,1.1129,1.1115,1.1127,1.1182,1.123,1.1237,1.1228,1.1197,1.1227,1.1232,1.121,1.1307,1.1274,1.1286,1.1327,1.1427,1.1433,1.1439,1.1486,1.15,1.1511,0,0,0,0,0,0,1.1118,1.1131,1.1116,1.1189,1.1208,1.1222,1.1261,1.1243,1.1272,1.1266,1.1254,1.1259,1.1321,1.133,1.1294,1.1402,1.1362,1.137,1.1394,1.1406,1.1416,1.1411,1.1249,0,0,0,0,0,1.1139,1.1176,1.1186,1.1249,1.1259,1.1258,1.1279,1.127,1.129,1.1298,1.1307,1.1328,1.1362,1.1385,1.1418,1.1493,1.1494,1.1526,1.1536,1.1544,1.1551,1.1586,1.1599,1.1462,1.1462,1.1462,0,0,1.1182,1.1193,1.1218,1.126,1.1274,1.1312,1.1266,1.131,1.1337,1.1305,1.136,1.1368,1.139,1.1456,1.1486,1.1465,1.1589,1.1552,1.1558,1.1561,1.1594,1.1607,1.1618,1.1466,1.1466,1.1465,0,0,1.1278,1.1292,1.1344,1.1358,1.1378,1.1376,1.1389,1.1405,1.1407,1.1463,1.1438,1.1471,1.1532,1.1546,1.1562,1.1659,1.1638,1.167,1.1721,1.1756,1.1766,1.1776,1.1806,1.1818,1.1678,1.1678,1.1678,0,1.1329,1.1385,1.1373,1.1416,1.1434,1.1405,1.1455,1.147,1.1501,1.1513,1.149,1.1562,1.1575,1.1641,1.1664,1.168,1.1691,1.1667,1.1766,1.1775,1.1784,1.1812,1.1824,1.1681,1.1681,1.168,1.168,0,1.1444,1.1483,1.1522,1.1549,1.1571,1.1619,1.1612,1.1636,1.1624,1.1624,1.1679,1.1693,1.1725,1.1741,1.1732,1.1805,1.1791,1.1768,1.1726,1.18,1.1827,1.1838,1.1686,1.1685,1.1684,1.1683,0,0,1.1577,1.1594,1.1608,1.1618,1.1636,1.1666,1.1711,1.1741,1.1759,1.1781,1.1816,1.1866,1.1842,1.186,1.1851,1.1882,1.1952,1.1853,1.1854,1.1868,1.2029,1.2044,1.2057,1.1939,1.1941,1.1943,1.2025,0,1.1671,1.1746,1.1735,1.1807,1.184,1.1811,1.1849,1.1864,1.1865,1.1893,1.1894,1.1928,1.1897,1.1906,1.1935,1.1937,1.1983,1.1932,1.1969,1.197,1.1961,1.2072,1.2089,1.2167,1.2036,1.2038,1.2039,0,1.1791,1.1812,1.1887,1.1896,1.1909,1.1944,1.1967,1.1996,1.2011,1.2009,1.2026,1.201,1.2053,1.2012,1.2068,1.2032,1.2047,1.205,1.2053,1.2054,1.2007,1.2072,1.2192,1.2202,1.2056,1.2055,1.2054,0,1.1874,1.1924,1.1973,1.1983,1.1996,1.2019,1.2026,1.2038,1.2055,1.2076,1.2087,1.2114,1.2128,1.2148,1.2139,1.2111,1.2195,1.2155,1.2193,1.2193,1.221,1.2209,1.233,1.2225,1.2225,1.2225,1.2225,0,1.1978,1.2024,1.201,1.2041,1.209,1.2076,1.2125,1.2128,1.2138,1.2168,1.2146,1.2174,1.2162,1.2189,1.2183,1.2227,1.2235,1.2233,1.223,1.2233,1.2233,1.224,1.2233,1.2228,1.2227,1.2227,1.2226,0,1.208,1.2073,1.2124,1.213,1.2132,1.2168,1.2173,1.22,1.2198,1.2235,1.2243,1.224,1.2269,1.2263,1.2297,1.2292,1.2347,1.234,1.2341,1.2338,1.2375,1.237,1.2503,1.2518,1.2407,1.2408,1.2409,0,1.2145,1.2178,1.2187,1.2203,1.221,1.2239,1.2255,1.2242,1.2259,1.2276,1.2301,1.2329,1.2349,1.2398,1.2399,1.2423,1.2414,1.2458,1.2417,1.2417,1.2409,1.2406,1.2407,1.2466,1.2467,1.2468,1.2469,0,1.2259,1.2252,1.2276,1.2297,1.2316,1.2333,1.2347,1.2363,1.235,1.2371,1.2399,1.2416,1.2448,1.2474,1.2496,1.2502,1.2482,1.2482,1.2491,1.2493,1.2491,1.2488,1.236,1.2479,1.2478,1.2477,1.2477,1.2476,1.2341,1.2368,1.2376,1.2402,1.241,1.2423,1.2448,1.2447,1.247,1.2494,1.2485,1.2517,1.2528,1.2554,1.2563,1.2587,1.257,1.2585,1.2588,1.2591,1.2593,1.2489,1.2592,1.2591,1.2591,1.2591,1.2591,0,1.2451,1.2453,1.2477,1.2496,1.2515,1.2494,1.2508,1.2526,1.2553,1.2564,1.2584,1.2615,1.264,1.2641,1.2663,1.2682,1.2673,1.2688,1.2685,1.2686,1.2609,1.2597,1.2694,1.2694,1.2694,1.2694,1.2694,1.2694,1.251,1.2552,1.2546,1.2591,1.2594,1.2623,1.2632,1.2643,1.2651,1.2686,1.2705,1.2705,1.2711,1.2733,1.2754,1.2753,1.2761,1.2778,1.2774,1.2702,1.2692,1.2682,1.267,1.2781,1.2781,1.2848,1.2849,1.2849]}]]